Date,TemperatureHighF,TemperatureAvgF,TemperatureLowF,DewpointHighF,DewpointAvgF,DewpointLowF,HumidityHigh,HumidityAvg,HumidityLow,PressureMaxIn,PressureMinIn,WindSpeedMaxMPH,WindSpeedAvgMPH,GustSpeedMaxMPH,PrecipitationSumIn
2013-2-1,34.1,30.2,23.9,21.4,11.5,1.7,63,47,34,30.03,29.54,17,4,17,0.00
2013-2-2,33.5,26.9,21.0,16.0,8.3,0.4,60,49,38,30.20,30.00,10,2,13,0.00
2013-2-3,32.1,28.5,25.4,25.1,20.9,14.4,86,77,55,30.01,29.68,8,0,8,0.00
2013-2-4,34.3,26.7,23.3,24.1,11.8,6.2,86,61,38,29.89,29.67,17,3,20,0.00
2013-2-5,32.7,28.5,23.5,25.3,15.3,7.3,85,62,50,29.97,29.88,5,0,5,0.00
2013-2-6,41.2,32.5,27.9,27.9,21.3,7.4,87,65,40,30.23,29.87,10,2,13,0.00
2013-2-7,36.6,27.6,20.5,17.5,7.3,-0.9,70,46,28,30.48,30.24,7,1,12,0.00
2013-2-8,34.7,30.9,19.8,33.5,26.4,12.8,100,87,60,30.43,29.54,19,4,22,0.00
2013-2-9,26.4,21.6,17.2,16.3,11.6,2.7,93,79,63,30.14,29.50,14,4,18,0.00
2013-2-10,48.4,24.4,9.3,22.7,8.7,-1.1,80,60,27,30.34,30.14,8,1,8,0.00
2013-2-11,43.6,34.3,18.8,42.8,30.1,9.2,100,90,79,30.30,29.55,7,1,7,0.00
2013-2-12,48.8,39.3,33.5,40.5,31.6,28.2,98,75,50,29.83,29.55,26,3,26,0.00
2013-2-13,50.2,37.1,29.2,31.1,28.2,24.9,89,72,42,29.82,29.64,12,1,12,0.00
2013-2-14,52.3,38.1,31.9,31.6,26.8,22.3,86,66,34,29.94,29.66,8,1,11,0.00
2013-2-15,56.1,39.5,29.1,36.7,32.1,25.5,96,77,45,29.96,29.85,14,2,15,0.00
2013-2-16,41.6,37.3,32.9,34.2,29.9,20.7,94,76,56,29.90,29.66,8,2,10,0.00
2013-2-17,32.7,24.0,19.1,24.7,11.3,-0.1,91,69,45,29.65,29.35,29,5,29,0.00
2013-2-18,38.0,24.1,15.9,9.3,2.9,-1.4,58,46,26,30.10,29.63,26,5,26,0.00
2013-2-19,49.4,37.2,25.0,41.1,26.3,3.2,100,69,46,30.12,29.53,12,1,12,0.00
2013-2-20,39.9,32.4,27.1,39.9,21.8,10.5,100,67,42,29.73,29.48,19,4,23,0.00
2013-2-21,36.6,28.9,25.4,18.9,14.3,8.6,70,58,41,30.13,29.73,15,4,18,0.00
2013-2-22,42.0,31.9,24.0,27.5,21.4,13.3,86,69,44,30.33,30.14,8,1,11,0.00
2013-2-23,39.1,34.9,28.5,35.2,30.6,25.5,98,83,70,30.28,29.87,7,1,8,0.00
2013-2-24,38.1,35.3,33.0,38.6,35.2,32.7,100,98,95,29.86,29.64,12,2,13,0.00
2013-2-25,40.4,35.2,32.6,33.6,32.0,28.9,100,88,66,30.19,29.84,5,0,6,0.00
2013-2-26,43.2,35.3,28.1,33.7,30.7,27.8,100,84,59,30.28,30.10,8,1,10,0.00
2013-2-27,41.1,39.4,36.5,40.9,39.0,32.7,100,99,86,30.10,29.51,17,4,20,0.00
2013-2-28,46.8,38.4,33.8,38.5,36.4,33.5,100,93,71,29.59,29.47,3,0,6,0.00